STARLINK-36791, 68111

Orbit data source: Space-Track

STARLINK-36791, 68111 is a payload satellite owned by SpaceX/Seattle (US) in SSO that was launched on Sun, 08 Mar 2026 UTC via an FALCON 9 launch vehicle from the Air Force Western Test Range (AFWTR). Payload-class satellites include a variety of spacecraft equipped with specific instruments for various scientific and technological missions. These include communications satellites like Starlink; space stations such as the ISS; scientific satellites like the Hubble; Earth observation satellites from companies like Planet Labs, Umbra, and HawkEye 360; GPS; miniature CubeSats for education and research; and military/defense satellites.

Loading next visibility...
Identifier
68111, 2026-044L
Orbit
SSO
Country
Flag of USUS
Related business
Manufacturer
SpaceX/Seattle
Mission
Operational spacecraft
Bus & Motor
STARLINK V2MO, Unknown motor
Mass
575 kg wet, ~530 kg dry
Launch date (UTC)
2026-03-08 (2 months ago)
Launch vehicle
FALCON 9
Launch site
Air Force Western Test Range (AFWTR)
Object type
Payload
Rocket body
Debris
Shape & HBR
Unknown shape, 17.7 m
Radar Cross Section
RCS unknown

Expand to show TLE details & history
Last TLE update: 11 hours ago

TLE from 11 hours ago
0 STARLINK-36791
1 68111U 26044L   26119.46146999  .00021692  00000-0  67202-3 0  9990
2 68111  97.2850  80.4447 0000975 127.2054 232.9278 15.33458485  9366
Epoch: 2026-04-29T11:04Z
TLE epoch observation values (Epoch: 2026-04-29T11:04:31.007Z)
Latitude
0.00001°
Longitude
56.89341°
Altitude
469.017 km
Speed
7.631 km/s
True Right ascension
05h 21m 46s
True Declination
0° 00' 00"
Sunlit
Object was in daylight at epoch
Visualization orbit readout
Latitude
Unknown
Longitude
Unknown
Altitude
Unknown
Speed
Unknown
Apparent Right ascension
Unknown
Apparent Declination
Unknown
Sunlit
N/A
Visualization observer readout
Local Sidereal Time
05:44:02
Azimuth
Unknown
Elevation
Unknown
Doppler factor
Unknown
Orbital elements
Apogee altitude
463.113 km
Perigee altitude
461.779 km
Semi-major axis
6,840.583 km
Eccentricity
0.0001
Inclination
97.285°
RAAN
80.4447°
Arg. of periapsis
127.2054°
True anomaly
232.91889°
Mean anomaly
232.9278°
Eccentric anomaly
232.92334°
Mean motion
3.83622 °/min
Orbital period
93.84 mins
BSTAR
0.00067202
Loading maneuver chart data...
Computing Atmospheric mass density...
Loading historical data...
Loading historical data...
Loading historical data...
Loading historical data...
Loading historical data...
Loading historical data...
Loading historical data...

Documentation

Showing up to 5 results
|